Tracking 31027 objects as of 19-Jul-2025
HD Live streaming from Space Station
objects crossing your sky now

FENGYUN 1C DEB

Track FENGYUN 1C DEB now!
10-day predictions


NORAD ID: 30381
Int'l Code: 1999-025ACU
Perigee: 817.7 km
Apogee: 900.0 km
Inclination: 98.8 °
Period: 102.0 minutes
Semi major axis: 7229 km
RCS: 0.0084 m2 (small)
Launch date: May 10, 1999
Source: People's Republic of China (PRC)
Launch site: Taiyaun Space Center, China (TSC)

Note: This is SATELLITE DEBRIS
Your satellite tracking list
SKOLTECH-B2
Track 1 satellite(s)




NASA's NSSDC Master Catalog

Two Line Element Set (TLE):
1 30381U 99025ACU 25199.53462041  .00001424  00000-0  78578-3 0  9990
2 30381  98.8249 236.7897 0056916 132.0079 228.5959 14.12233315900888
Source of the keplerian elements: AFSPC